DW7447 Weather Reports


Display with metric or nautical units.
time (UTC)temp
F
wind
direction
speed
MPH
gust
MPH
rain 1hr
in
rain 24hr
in
rain mn
in
humidity
%
barometer
mb
20260509083635 49 10 7.0 11.0 0.01 0.16 0.07 97 1021.2
20260509083134 49 38 5.0 11.0 0.01 0.16 0.07 97 1021.3
20260509082637 49 13 5.0 9.0 0.01 0.16 0.07 97 1021.2
20260509082134 49 20 4.0 11.0 0.01 0.16 0.07 97 1021.2
20260509081635 49 10 6.0 11.0 0.01 0.16 0.07 97 1021.1
20260509081136 49 0 3.0 7.0 0.01 0.16 0.07 97 1021.1
20260509080634 49 58 4.0 9.0 0.01 0.16 0.07 97 1021.0
20260509080135 49 54 3.0 9.0 0.01 0.16 0.07 97 1021.1
20260509075634 49 61 5.0 8.0 0.01 0.15 0.07 97 1021.0
20260509075135 49 158 4.0 8.0 0.00 0.15 0.06 97 1021.0
20260509074636 49 31 5.0 8.0 0.00 0.15 0.06 97 1021.1
20260509074134 50 11 3.0 11.0 0.00 0.15 0.06 97 1021.0
20260509072135 50 16 2.0 8.0 0.00 0.15 0.06 97 1020.8
20260509071634 50 52 3.0 7.0 0.00 0.15 0.06 97 1020.8
20260509071134 50 14 3.0 6.0 0.00 0.15 0.06 97 1020.8
20260509070635 50 25 2.0 6.0 0.00 0.15 0.06 97 1020.8
20260509065636 49 35 2.0 7.0 0.00 0.15 0.06 97 1020.5
20260509065135 49 58 2.0 6.0 0.00 0.15 0.06 97 1020.6
20260509064634 49 44 3.0 6.0 0.00 0.15 0.06 97 1020.6
20260509064136 49 39 2.0 6.0 0.00 0.15 0.06 97 1020.6
20260509063636 49 31 3.0 6.0 0.00 0.15 0.06 97 1020.5
20260509063135 49 55 3.0 7.0 0.00 0.15 0.06 97 1020.5
20260509062134 49 42 4.0 7.0 0.01 0.15 0.06 97 1020.6
20260509061634 49 24 2.0 7.0 0.01 0.15 0.06 97 1020.5
20260509061135 49 18 4.0 7.0 0.01 0.15 0.06 97 1020.4
20260509060635 49 38 3.0 6.0 0.01 0.15 0.06 97 1020.3
20260509060134 49 14 2.0 6.0 0.01 0.15 0.06 97 1020.3
20260509055647 49 25 3.0 7.0 0.01 0.14 0.06 97 1020.1
20260509055135 49 28 3.0 8.0 0.01 0.14 0.06 97 1020.1
20260509054635 49 59 2.0 8.0 0.01 0.14 0.06 97 1019.9
20260509054134 49 18 5.0 8.0 0.01 0.14 0.06 97 1019.9
20260509053635 49 49 4.0 7.0 0.01 0.14 0.06 97 1020.0
20260509053134 49 58 3.0 7.0 0.01 0.14 0.06 97 1020.0
20260509052134 49 66 3.0 7.0 0.00 0.14 0.06 97 1020.0
20260509051636 49 49 4.0 7.0 0.00 0.14 0.06 97 1019.9
20260509050635 49 75 2.0 7.0 0.00 0.14 0.06 97 1020.0
20260509050136 49 72 4.0 7.0 0.00 0.14 0.06 97 1019.9
20260509045638 49 63 2.0 8.0 0.00 0.14 0.06 97 1019.8
20260509045134 49 69 3.0 11.0 0.00 0.14 0.06 97 1019.8
20260509044634 49 72 4.0 11.0 0.00 0.14 0.06 97 1019.7
20260509044135 49 35 4.0 8.0 0.00 0.14 0.06 97 1019.8
20260509043636 49 78 4.0 9.0 0.00 0.14 0.06 96 1019.8
20260509043135 49 61 5.0 9.0 0.00 0.14 0.06 96 1019.8
20260509042634 49 80 4.0 9.0 0.00 0.14 0.06 96 1019.9
20260509042135 49 52 3.0 6.0 0.00 0.14 0.06 96 1020.0
20260509041635 49 61 1.0 7.0 0.00 0.14 0.06 96 1020.1
20260509040636 49 69 2.0 6.0 0.00 0.14 0.06 96 1020.1
20260509040134 49 71 2.0 6.0 0.00 0.14 0.06 96 1020.1
20260509035635 49 78 2.0 6.0 0.00 0.14 0.06 96 1020.2
20260509035135 49 96 2.0 6.0 0.00 0.14 0.06 96 1020.1
20260509034635 49 96 2.0 5.0 0.00 0.14 0.06 96 1020.1
20260509034135 48 102 2.0 5.0 0.00 0.14 0.06 96 1020.0
20260509033135 48 90 3.0 6.0 0.00 0.14 0.06 96 1020.0
20260509032635 48 78 2.0 5.0 0.00 0.14 0.06 95 1020.1
20260509032136 48 69 2.0 5.0 0.00 0.14 0.06 95 1020.1
20260509031134 48 107 2.0 4.0 0.00 0.14 0.06 95 1020.2
20260509030634 48 107 1.0 5.0 0.00 0.14 0.06 95 1020.2
20260509025634 48 133 1.0 5.0 0.01 0.13 0.06 95 1020.1
20260509025135 48 133 2.0 5.0 0.01 0.13 0.06 95 1020.0
20260509024634 48 127 2.0 4.0 0.02 0.13 0.06 94 1020.0
20260509023638 48 127 2.0 4.0 0.04 0.13 0.06 95 1020.0
20260509023134 48 34 2.0 4.0 0.04 0.13 0.06 94 1020.0
20260509022635 48 34 0.0 5.0 0.05 0.13 0.06 94 1020.0
20260509021134 48 179 1.0 4.0 0.05 0.13 0.06 94 1020.1
20260509020635 48 179 1.0 4.0 0.05 0.13 0.06 94 1020.2
20260509020135 48 179 0.0 2.0 0.04 0.13 0.05 94 1020.2
20260509015636 48 179 0.0 2.0 0.04 0.09 0.05 94 1020.3
20260509013635 48 251 1.0 5.0 0.01 0.10 0.02 94 1020.3
20260509013134 48 251 2.0 5.0 0.01 0.10 0.01 94 1020.3
20260509012634 48 251 1.0 4.0 0.00 0.09 0.01 94 1020.4
20260509012134 48 251 0.0 4.0 0.00 0.09 0.01 94 1020.3
20260509011635 48 251 1.0 5.0 0.00 0.09 0.01 94 1020.3
20260509011138 48 251 2.0 5.0 0.00 0.09 0.01 93 1020.2
20260509010636 48 217 1.0 4.0 0.00 0.09 0.01 93 1020.1
20260509010135 48 217 0.0 4.0 0.00 0.09 0.01 93 1020.2
20260509005634 48 217 0.0 5.0 0.00 0.09 0.01 93 1020.1
20260509005136 48 217 2.0 5.0 0.00 0.09 0.01 93 1020.1
20260509004634 48 148 2.0 5.0 0.00 0.09 0.01 93 1020.1
20260509004134 49 200 2.0 5.0 0.00 0.09 0.01 93 1020.1
20260509003636 48 200 2.0 4.0 0.00 0.09 0.01 93 1020.1
20260509003134 48 200 0.0 4.0 0.00 0.09 0.01 93 1020.1
20260509002635 48 200 1.0 4.0 0.00 0.09 0.01 93 1020.1
20260509002134 48 200 0.0 4.0 0.00 0.09 0.01 92 1020.1
20260509001635 48 200 0.0 4.0 0.00 0.09 0.01 92 1020.0
20260509001134 48 200 0.0 2.0 0.01 0.09 0.01 92 1020.0
20260509000634 48 200 0.0 2.0 0.01 0.09 0.01 92 1019.9
20260509000135 48 200 0.0 4.0 0.01 0.09 0.01 92 1019.9
20260508235635 48 200 0.0 5.0 0.01 0.09 0.01 92 1020.0
20260508235149 48 200 1.0 6.0 0.01 0.09 0.01 92 1020.0
20260508234634 48 200 2.0 6.0 0.01 0.09 0.01 92 1020.0
20260508234135 48 200 2.0 4.0 0.01 0.09 0.01 92 1019.9
20260508233635 48 200 0.0 4.0 0.01 0.09 0.01 92 1019.9
20260508233134 48 200 1.0 4.0 0.01 0.09 0.01 91 1019.9
20260508232635 49 200 1.0 5.0 0.01 0.09 0.01 91 1019.8
20260508232134 49 200 1.0 5.0 0.01 0.09 0.01 92 1019.9
20260508231634 49 200 2.0 5.0 0.01 0.09 0.00 92 1019.8
20260508231135 49 200 2.0 5.0 0.00 0.09 0.00 91 1019.8
20260508230634 49 200 2.0 4.0 0.00 0.09 0.00 91 1019.8
20260508230132 49 200 1.0 4.0 0.00 0.09 0.00 91 1019.7
20260508225634 49 200 1.0 4.0 0.01 0.09 0.09 91 1019.8
20260508225135 49 200 2.0 4.0 0.01 0.09 0.09 91 1019.8
20260508224633 49 200 0.0 4.0 0.02 0.09 0.09 91 1019.8
20260508224135 49 200 0.0 4.0 0.02 0.09 0.09 90 1019.7
20260508223134 50 200 2.0 5.0 0.02 0.09 0.09 90 1019.7
20260508222634 50 200 1.0 5.0 0.02 0.09 0.09 90 1019.7
20260508222135 50 200 1.0 5.0 0.02 0.09 0.09 90 1019.7
20260508221634 50 200 1.0 4.0 0.02 0.09 0.09 90 1019.8
20260508221134 51 200 1.0 4.0 0.02 0.09 0.09 90 1019.8
20260508220634 51 200 1.0 5.0 0.02 0.09 0.09 90 1019.8
20260508220134 51 200 2.0 5.0 0.02 0.09 0.09 91 1019.9
20260508215633 51 200 0.0 4.0 0.02 0.08 0.08 91 1019.8
20260508215133 51 200 1.0 4.0 0.02 0.08 0.07 90 1019.9
20260508214634 51 200 1.0 5.0 0.00 0.06 0.06 90 1019.9
20260508213634 51 200 2.0 7.0 0.02 0.06 0.06 90 1019.8
20260508213135 51 200 3.0 8.0 0.02 0.06 0.06 90 1019.7
20260508212633 51 248 3.0 9.0 0.02 0.06 0.06 90 1019.8
20260508212135 51 228 4.0 9.0 0.02 0.06 0.06 89 1019.8
20260508211635 51 231 3.0 8.0 0.02 0.06 0.06 89 1019.9
20260508211133 52 254 4.0 8.0 0.02 0.06 0.06 88 1019.8
20260508210633 52 289 2.0 5.0 0.02 0.06 0.06 87 1019.7
20260508205635 52 289 3.0 6.0 0.02 0.06 0.06 86 1019.5
20260508205135 53 252 2.0 5.0 0.02 0.06 0.06 85 1019.6
20260508204634 53 165 2.0 5.0 0.02 0.06 0.06 84 1019.6
20260508204138 53 131 1.0 5.0 0.02 0.06 0.06 84 1019.6
20260508203635 53 195 2.0 5.0 0.01 0.05 0.05 84 1019.5
20260508203133 53 266 1.0 7.0 0.01 0.05 0.05 84 1019.5
20260508202635 53 266 2.0 11.0 0.01 0.05 0.05 83 1019.5
20260508202135 54 235 4.0 11.0 0.00 0.04 0.04 83 1019.5
20260508201633 54 262 4.0 9.0 0.00 0.04 0.04 83 1019.6
20260508201133 54 251 4.0 9.0 0.00 0.04 0.04 81 1019.4
20260508200636 54 240 2.0 6.0 0.00 0.04 0.04 80 1019.3
20260508195133 54 128 3.0 7.0 0.00 0.04 0.04 83 1019.0
20260508194634 54 147 3.0 5.0 0.00 0.04 0.04 82 1018.9
20260508194133 54 44 1.0 5.0 0.00 0.04 0.04 82 1018.9
20260508193635 54 44 0.0 5.0 0.00 0.04 0.04 81 1018.7
20260508193134 54 44 1.0 5.0 0.00 0.04 0.04 80 1018.6
20260508192636 55 44 0.0 7.0 0.00 0.04 0.04 80 1018.6
20260508191634 55 10 4.0 7.0 0.00 0.04 0.04 79 1018.5
20260508191133 55 56 0.0 6.0 0.00 0.04 0.04 79 1018.5
20260508190634 55 56 1.0 6.0 0.00 0.04 0.04 78 1018.5
20260508190133 55 73 2.0 5.0 0.00 0.04 0.04 77 1018.4
20260508185634 56 134 2.0 9.0 0.00 0.04 0.04 77 1018.4
20260508185134 56 173 3.0 9.0 0.00 0.04 0.04 76 1018.4
20260508184633 56 107 1.0 5.0 0.00 0.04 0.04 76 1018.4
20260508184135 56 99 1.0 5.0 0.00 0.04 0.04 76 1018.4
20260508183134 56 265 3.0 7.0 0.00 0.04 0.04 78 1018.3
20260508181634 57 113 2.0 7.0 0.00 0.04 0.04 80 1018.1
20260508181135 57 62 4.0 7.0 0.00 0.04 0.04 80 1018.1
20260508180635 57 49 2.0 6.0 0.00 0.04 0.04 80 1018.0
20260508175637 58 11 2.0 8.0 0.00 0.04 0.04 79 1018.0
20260508174635 58 63 3.0 8.0 0.00 0.04 0.04 77 1017.9
20260508173633 58 54 4.0 8.0 0.00 0.04 0.04 78 1017.9
20260508172634 58 18 4.0 11.0 0.00 0.04 0.04 77 1017.7
20260508172135 58 42 4.0 8.0 0.00 0.04 0.04 78 1017.7
20260508171633 59 61 5.0 8.0 0.00 0.04 0.04 78 1017.6
20260508171136 59 11 3.0 12.0 0.00 0.04 0.04 77 1017.5
20260508170633 59 78 5.0 12.0 0.00 0.04 0.04 77 1017.6
20260508165635 58 73 3.0 9.0 0.00 0.04 0.04 75 1017.5
20260508165136 58 68 3.0 11.0 0.00 0.04 0.04 74 1017.5
20260508164649 58 62 5.0 11.0 0.00 0.04 0.04 75 1017.4
20260508164133 58 73 2.0 11.0 0.00 0.04 0.04 75 1017.5
20260508163633 59 38 4.0 11.0 0.00 0.04 0.04 74 1017.4
20260508163137 59 45 5.0 9.0 0.00 0.04 0.04 73 1017.5
20260508162133 60 42 5.0 11.0 0.00 0.04 0.04 70 1017.4
20260508160633 61 52 6.0 12.0 0.00 0.04 0.04 67 1017.4
20260508160133 61 42 5.0 12.0 0.00 0.04 0.04 67 1017.4
20260508155638 61 69 4.0 9.0 0.00 0.04 0.04 69 1017.4
20260508155133 61 86 5.0 11.0 0.00 0.04 0.04 68 1017.4
20260508154635 61 68 6.0 11.0 0.00 0.04 0.04 70 1017.4
20260508153634 60 4 6.0 12.0 0.00 0.04 0.04 67 1017.5
20260508153134 60 63 2.0 7.0 0.00 0.04 0.04 72 1017.5
20260508152134 59 61 4.0 7.0 0.00 0.04 0.04 70 1017.5
20260508151635 59 61 4.0 7.0 0.00 0.04 0.04 72 1017.5
20260508151135 58 24 3.0 7.0 0.00 0.04 0.04 72 1017.6
20260508150635 58 0 4.0 7.0 0.00 0.04 0.04 73 1017.4
20260508150134 58 83 3.0 7.0 0.00 0.04 0.04 75 1017.5
20260508145636 58 17 3.0 7.0 0.00 0.04 0.04 75 1017.6
20260508145133 58 32 3.0 7.0 0.00 0.04 0.04 76 1017.4
20260508144633 57 353 2.0 11.0 0.00 0.04 0.04 77 1017.4
20260508144133 57 0 5.0 11.0 0.00 0.04 0.04 76 1017.4
20260508143633 57 340 5.0 11.0 0.00 0.04 0.04 75 1017.5
20260508142637 58 348 9.0 14.0 0.00 0.04 0.04 72 1017.4
20260508142132 58 281 7.0 12.0 0.00 0.04 0.04 72 1017.4
20260508141634 58 348 3.0 6.0 0.00 0.04 0.04 70 1017.4
20260508141133 59 334 3.0 6.0 0.00 0.04 0.04 70 1017.3
20260508140134 60 327 2.0 7.0 0.00 0.04 0.04 69 1017.3
20260508135634 60 251 2.0 7.0 0.00 0.04 0.04 66 1017.2
20260508135135 60 285 3.0 8.0 0.00 0.04 0.04 65 1017.1
20260508134633 60 0 2.0 9.0 0.00 0.04 0.04 65 1017.1
20260508134135 61 278 3.0 11.0 0.00 0.04 0.04 63 1017.0
20260508133634 61 264 3.0 11.0 0.00 0.04 0.04 62 1017.0
20260508133134 61 224 3.0 9.0 0.00 0.04 0.04 63 1017.0
20260508132633 61 309 3.0 9.0 0.00 0.04 0.04 62 1017.1
20260508132135 61 251 4.0 8.0 0.00 0.04 0.04 61 1017.1
20260508131635 61 202 3.0 8.0 0.00 0.04 0.04 65 1017.1
20260508131135 61 168 3.0 9.0 0.00 0.04 0.04 64 1017.1
20260508130633 61 166 4.0 12.0 0.00 0.04 0.04 64 1017.1
20260508130134 61 96 4.0 12.0 0.00 0.04 0.04 65 1017.1
20260508125635 61 217 4.0 11.0 0.00 0.04 0.04 65 1017.2
20260508125134 61 200 4.0 12.0 0.00 0.04 0.04 65 1017.2
20260508124635 61 235 5.0 14.0 0.03 0.04 0.04 65 1017.1
20260508123134 60 168 5.0 12.0 0.04 0.04 0.04 70 1017.1
20260508122636 60 196 7.0 12.0 0.04 0.04 0.04 75 1017.1
20260508122137 59 237 2.0 6.0 0.04 0.04 0.04 72 1017.1
20260508121635 59 219 3.0 6.0 0.04 0.04 0.04 76 1017.1
20260508121131 58 214 2.0 6.0 0.04 0.04 0.04 78 1017.1
20260508120633 58 207 2.0 7.0 0.04 0.04 0.04 78 1017.1
20260508120133 58 323 3.0 7.0 0.04 0.04 0.04 75 1017.2
20260508115633 58 195 4.0 7.0 0.04 0.04 0.04 70 1017.2
20260508115133 58 274 2.0 7.0 0.04 0.04 0.04 70 1017.2
20260508114634 59 233 4.0 9.0 0.01 0.01 0.01 65 1017.2
20260508114134 59 230 6.0 9.0 0.00 0.00 0.00 62 1017.1
20260508113633 59 243 4.0 13.0 0.00 0.00 0.00 60 1017.0
20260508113133 60 204 4.0 13.0 0.00 0.00 0.00 60 1017.1
20260508112633 60 252 2.0 11.0 0.00 0.00 0.00 61 1017.0
20260508112133 60 204 6.0 11.0 0.00 0.00 0.00 61 1017.0
20260508111634 60 235 5.0 9.0 0.00 0.00 0.00 62 1016.9
20260508111133 60 258 4.0 9.0 0.00 0.00 0.00 62 1017.0
20260508110634 60 219 4.0 12.0 0.00 0.00 0.00 61 1016.9
20260508110132 60 237 6.0 12.0 0.00 0.00 0.00 61 1016.8
20260508105633 60 247 5.0 11.0 0.00 0.00 0.00 62 1017.0
20260508105133 60 199 5.0 12.0 0.00 0.00 0.00 62 1016.9
20260508104134 60 231 4.0 9.0 0.00 0.00 0.00 61 1016.9
20260508103633 60 244 3.0 7.0 0.00 0.00 0.00 61 1016.9
20260508103133 61 259 2.0 11.0 0.00 0.00 0.00 59 1016.8
20260508102634 61 247 5.0 11.0 0.00 0.00 0.00 61 1016.9
20260508102133 60 279 2.0 7.0 0.00 0.00 0.00 64 1016.8
20260508101635 59 178 2.0 8.0 0.00 0.00 0.00 65 1016.9
20260508101139 59 209 5.0 9.0 0.00 0.00 0.00 65 1016.9
20260508100633 60 231 5.0 9.0 0.00 0.00 0.00 63 1016.9
20260508100133 61 233 5.0 11.0 0.00 0.00 0.00 64 1016.9
20260508095633 61 209 4.0 11.0 0.00 0.00 0.00 64 1016.9
20260508095133 62 128 2.0 11.0 0.00 0.00 0.00 64 1016.9
20260508094633 61 182 6.0 13.0 0.00 0.00 0.00 64 1016.8
20260508094133 61 195 5.0 13.0 0.00 0.00 0.00 65 1016.8
20260508092633 60 151 5.0 12.0 0.00 0.00 0.00 66 1016.8
20260508092133 60 175 3.0 11.0 0.00 0.00 0.00 68 1016.8
20260508091633 59 151 5.0 11.0 0.00 0.00 0.00 67 1016.8
20260508090634 59 248 3.0 11.0 0.00 0.00 0.00 70 1016.8
20260508090133 59 275 3.0 11.0 0.00 0.00 0.00 69 1016.7
20260508085632 58 255 4.0 13.0 0.00 0.00 0.00 70 1016.8
20260508085132 58 250 5.0 13.0 0.00 0.00 0.00 71 1016.8
20260508084634 57 221 5.0 12.0 0.00 0.00 0.00 73 1016.9